Regional Weather Roundup
Issued by NWS Austin/San Antonio, TX

Home | Current Version | Previous Version | Text Only | Print | Product List | Glossary On
Versions: 1 2 3 4 5 6 7 8 9 10 11 12 13 14 15 16 17 18 19 20 21 22 23 24 25 26 27 28 29 30 31 32 33 34 35 36 37 38 39 40 41 42 43 44 45 46 47 48 49 50
000
ASUS44 KEWX 261111
RWREWX
SOUTH TEXAS REGIONAL WEATHER ROUNDUP
NATIONAL WEATHER SERVICE AUSTIN/SAN ANTONIO TX
600 AM CDT TUE MAY 26 2020

NOTE: "FAIR" INDICATED FEW OR NO CLOUDS BELOW 12,000 FEET WITH NO
SIGNIFICANT WEATHER AND/OR OBSTRUCTIONS TO VISIBILITY.

* - THESE STATIONS ARE NOT NWS OR FAA STATIONS...AND ARE NOT SUBJECT
    TO NWS AND FAA QUALITY CONTROL.

TXZ171-172-183>190-261200-
TEXAS HILL COUNTRY AND EDWARDS PLATEAU

CITY           SKY/WX    TMP DP  RH WIND       PRES   REMARKS
JUNCTION       MOCLDY    65  63  93 N6        29.99R
*LLANO         CLOUDY    66  64  94 N6        29.99R
BURNET         LGT RAIN  64  61  90 CALM      29.95F
*HORSESHOE BAY FAIR      64  63  94 CALM      29.95R
*LAGO VISTA    FAIR      62  61  96 SE3       29.93S
*KERRVILLE     DRIZZLE   65  62  91 CALM      29.96R
*FREDERICKSBRG CLOUDY    64  62  96 E3        29.97S
*ROCKSPRINGS   NOT AVBL
*BOERNE        FAIR      59  59 100 NW6       29.95S
HONDO          FAIR      63  61  93 CALM      29.92S
*UVALDE        NOT AVBL
DEL RIO        CLOUDY    71  66  84 N5        29.93R
*LAUGHLIN AFB  CLOUDY    68  65  90 E8        29.95R
*SPOFFORD      NOT AVBL
*EAGLE PASS    CLOUDY    68  61  77 CALM      29.94S
CARRIZO SPRGS  FAIR      64  64 100 CALM      29.92S
$$

TXZ173-191>194-202-209-217>225-228-261200-
CENTRAL AND SOUTH CENTRAL TEXAS

CITY           SKY/WX    TMP DP  RH WIND       PRES   REMARKS
GEORGETOWN     MOCLDY    65  63  93 NW3       29.94F
*TAYLOR        FAIR      63  62  97 CALM      29.91S
AUSTIN/BERGSTM FAIR      65  64  97 NW3       29.91R
AUSTIN/MABRY   FAIR      66  62  87 CALM      29.93R
*PFLUGERVILLE  FAIR      64  64 100 CALM      29.92S
SAN MARCOS     FAIR      65  65 100 N7        29.93R
NEW BRAUNFELS  FAIR      67  64  90 NW6       29.90R
*RANDOLPH AFB  FAIR      64  64  99 N6        29.90S
*SEGUIN        FAIR      65  64  97 CALM      29.94S
SAN ANTONIO    FAIR      66  63  90 NW5       29.91S
STINSON FIELD  FAIR      66  66 100 CALM      29.88S
*KELLY FIELD   FAIR      66  66 100 NW3       29.89R
*PLEASANTON    FAIR      67  66  94 CALM      29.91F
*KENEDY        FAIR      68  66  94 NW3       29.89F
*LA GRANGE     FAIR      67  67 100 SW3       29.88S
*GIDDINGS      FAIR      63  62  97 CALM      29.90S
*GONZALES      FAIR      67  67 100 NE6       29.88F
$$

TXZ163>164-176>182-195>201-210>213-226-227-235-261200-
SOUTHEAST TEXAS

CITY           SKY/WX    TMP DP  RH WIND       PRES   REMARKS
COLLEGE STN    FAIR      67  65  93 N6        29.87F
*BRYAN         FAIR      66  66 100 N3        29.90S
*CALDWELL      FAIR      64 N/A N/A N5        29.89S
*CROCKETT      NOT AVBL
*BRENHAM       FAIR      67  66  96 CALM      29.89S
HUNTSVILLE     FAIR      67  64  90 CALM      29.89F
CONROE         MOCLDY    67  65  93 S7        29.90R
HOUSTON BUSH   CLOUDY    69  66  90 S10       29.87F
HOUSTON HOBBY  LGT RAIN  70  67  90 S7        29.88F
*HOUSTON SW AP LGT RAIN  66  66 100 S6        29.90F
PEARLAND       LGT RAIN  70  66  87 SW3       29.90F
HOUSTON HOOKS  LGT RAIN  67  63  87 N5        29.88R
ELLINGTON FLD  CLOUDY    68  66  94 SW3       29.88
SUGAR LAND     LGT RAIN  69  67  93 NE9G18    29.82F
*HOUSTON EXEC  FAIR      70  64  83 NW6       29.89R
*CLEVELAND MUN FAIR      67  66  97 CALM      29.88R
*WHARTON       FAIR      66  64  94 E8        29.83S
*COLUMBUS      FAIR      66  65  94 NW5       29.90R
*EAGLE LAKE    FAIR      70  65  86 NW6       29.88S
$$

TXZ214>216-236>238-261200-
THE UPPER TEXAS COAST

CITY           SKY/WX    TMP DP  RH WIND       PRES   REMARKS
*ORANGE        RAIN      68  65  91 NW7       29.91F
PORT ARTHUR    CLOUDY    67  66  97 NW8       29.88F
GALVESTON      CLOUDY    73  67  81 NW8       29.90F
ANGLETON       LGT RAIN  68  66  93 SW3       29.92F
*BAY CITY      LGT RAIN  69  68  96 E9        29.88F
PALACIOS       FAIR      69  66  90 E16       29.82F
$$

TXZ229>234-239>247-261200-
TEXAS COASTAL BEND AND RIO GRANDE PLAINS

CITY           SKY/WX    TMP DP  RH WIND       PRES   REMARKS
VICTORIA       FAIR      69  65  86 N8        29.86R
*BEEVILLE      RAIN      70  70 100 CALM      29.89R
ROCKPORT       MOCLDY    76  69  79 E15       29.80F
*PORT ARANSAS  FAIR      74  68  80 NE17G29   29.83F
*PORT LAVACA   NOT AVBL
*INGLESIDE     FAIR      72  71  98 E13       29.81F
CORPUS CHRISTI CLOUDY    72  68  87 E9        29.82F
CORPUS NAS     CLOUDY    74  70  87 E21G28    29.82F
*ROBSTOWN      CLOUDY    70  66  89 E6        29.84F
ALICE          MOCLDY    70  66  87 E3        29.85F
KINGSVILLE NAS FAIR      71  68  90 NE7       29.84F
COTULLA        MOCLDY    67  65  93 CALM      29.91F
LAREDO         CLOUDY    70  66  88 NE8       29.90R
$$

TXZ248>255-261200-
DEEP SOUTH TEXAS

CITY           SKY/WX    TMP DP  RH WIND       PRES   REMARKS
BROWNSVILLE    TSTM      78  74  87 E9        29.83R
PORT ISABEL    TSTM      76  71  85 NE16G33   29.86R
HARLINGEN      TSTM      73  70  90 N13       29.87R
*HEBBRONVILLE  FAIR      68  66  93 E8        29.89R
MCALLEN        NOT AVBL
*WESLACO       TSTM      73  70  88 NE8G20    29.83S
FALFURRIAS     NOT AVBL
EDINBURG       FAIR      72  69  91 NE9       29.86R
*ZAPATA        NOT AVBL
$$

TXZ213>215-236>238-242>244-246-247-251-254-255-261200-
CMAN STATIONS

STATION/POSITION TIME  TEMP    WIND        PRES    WAVE
                       AIR SEA DIR/SP/G            HT/PER
                 (UTC) (F)     (DEG/KT/KT) (MB)    (FT/S)
SABINE PASS      1030   70 83  330/ 15/ 22 1014.2
NORTH JETTY/GLS  1018   71 81  330/ 17/ 20 1011.3
EAGLE POINT      1030   69 79   10/  3/  4 1011.9
MORGANS POINT    1030   71 81  330/  2/  5 1012.1
PORT O`CONNOR    1030   72 80   70/ 19/ 22 1010.5
PORT ARANSAS     1000   73 80   20/ 28/ 31 1009.9
MALAQUITE BEACH  1030   75 88   20/ 25/ 27 1010.0
BAFFIN BAY       1030   74 80   20/ 20/ 28 1010.2
PORT ISABEL      1030   78 81   30/ 10/ 14 1011.9
$$




USA.gov is the U.S. government's official web portal to all federal, state and local government web resources and services.